エレーニン彗星

P/2011 NO1 ( Elenin ) 2024

English version
Home page
Updated on July 8, 2023

---------------------------------------------------------------------

・ プロフィール

・ 軌道要素

Epoch 2024 May 10.0 TT = JDT 2460440.5                                          
T 2024 May 6.42677 TT                                   Rudenko                 
q   1.2436943            (2000.0)            P               Q                  
n   0.07389558     Peri.  263.54610     -0.91130152     +0.33540678             
a   5.6241521      Node   295.83079     -0.18529536     -0.85203919             
e   0.7788655      Incl.   15.38616     -0.36768895     -0.40190982             
P  13.3                                                                         
From 62 observations 2011 June 12-Aug. 2, mean residual 1".2.                   

・ 星図

・ 光度変化

        m1 = 14.5 + 5 logΔ + 10.0 log r

---------------------------------------------------------------------

軌道要素はM.P.E.C. 2021-B143に掲載されたものです。
星図はステラナビゲータ Ver.11 (アストロアーツ) で作成したものです。
光度グラフはComet for Windowsで作成したものです。

---------------------------------------------------------------------

Copyright(C) Seiichi Yoshida (comet@aerith.net). All rights reserved.